Логашкино

Россия / Республика Саха (Якутия)     70°47′39″N   153°54′36″E
темп.,
°C
ветер,
м/с
пор.,
м/с
влажн.,
%
обл.,
%
осадки,
мм/ч
давл.,
гПа
погр.,
м
27 февраля, сб
сб2723:00−24ссз2210099 0.1 103420
02:00−23ссз1110097 0.1 103320
05:00−25ссз1210092 0.1 103320
08:00−26ссв1210095 0.0 103320
11:00−25в119998 0.1 103319
14:00−26вюв229893 0.0 103219
17:00−29вюв1210087 0.0 103219
20:00−29вюв229944 0.0 103219
28 февраля, вс
вс2823:00−30вюв229945 0.0 103219
02:00−31юв229926 0.0 103219
05:00−31юв229944 0.0 103119
08:00−31юв239839 0.0 103119
11:00−31юв339730 0.0 103027
14:00−30юв33960 0.0 103039
17:00−31вюв33970 0.0 103020
20:00−32вюв34970 0.0 103027
1 марта, пн
пн123:00−32вюв34970 0.0 103032
02:00−32в33980 0.0 102819
05:00−32всв34988 0.0 102828
08:00−31всв449818 0.0 102746
11:00−30всв46978 0.0 102699
14:00−28св36986 0.0 1025104
17:00−29св44988 0.0 102357
20:00−30св44990 0.0 102447
2 марта, вт
вт223:00−31св349916 0.0 102434
02:00−32св349958 0.0 102425
05:00−32св339970 0.0 102421
08:00−32св339989 0.0 102522
11:00−32всв239992 0.0 102523
14:00−31всв239895 0.0 102625
17:00−32всв229888 0.0 102719
20:00−34в229864 0.0 102819
3 марта, ср
ср323:00−34в229939 0.0 102919
02:00−35в22998 0.0 102919
05:00−35вюв229831 0.0 103019
08:00−36вюв23950 0.0 103019
11:00−35вюв33950 0.0 102931
14:00−34в349641 0.0 102866
17:00−36в349626 0.0 102736
20:00−37в349713 0.0 102540